Location: Ferma
(41.9500°N, 44.5167°E)
Time: 10:54:43
(UTC+00:00)

BREEZE-M DEB (TANK) - Pass Details

Date: 02 June 2022
Orbit: 338 x 14777 km, 49.6° (Epoch: 30 June)

Event Time Altitude Azimuth Distance (km) Brightness Sun altitude
Rises 14:16:32 0° 296° (WNW) 14,175 11.5 22.5°
Reaches altitude 10° 14:27:49 10° 298° (WNW) 14,745 12.0 20.4°
Maximum altitude 16:39:35 69° 246° (WSW) 11,728 9.9 -2.1°
Drops below altitude 10° 17:25:30 10° 165° (SSE) 7,549 8.3 -8.9°
Sets 17:29:07 0° 161° (SSE) 7,696 8.3 -9.4°
Enters shadow 17:29:15 - 161° (SSE) 7,704 8.3 -9.4°
